Regional Weather Roundup
Issued by NWS

Home | Current Version | Previous Version | Text Only | Print | Product List | Glossary On
Versions: 1 2 3 4 5 6 7 8 9 10 11 12 13 14 15 16 17 18 19 20 21 22 23 24 25 26 27 28 29 30 31 32 33 34 35 36 37 38 39 40 41 42 43 44 45 46 47 48 49 50
000
ASUS45 KREV 010710
RWRNV
NEVADA REGIONAL WEATHER ROUNDUP
NATIONAL WEATHER SERVICE RENO NV
1200 AM PDT MON SEP 01 2014

NOTE: "FAIR" INDICATES FEW OR NO CLOUDS BELOW 12,000 FEET WITH NO
SIGNIFICANT WEATHER AND/OR OBSTRUCTIONS TO VISIBILITY.

NVZ001-003-004-010800-
WESTERN NEVADA

CITY           SKY/WX    TMP DP  RH WIND       PRES   REMARKS
RENO           CLEAR     71  38  29 N8        30.05R
CARSON CITY    FAIR      64  34  32 W3        30.06S
MINDEN         FAIR      55  36  47 SE8       30.07S
PYRAMID LAKE     N/A     75 N/A N/A NW1         N/A
FALLON         CLEAR     62  34  35 SW7       29.98R
LOVELOCK       CLEAR     58  32  37 SE6       29.99R
HAWTHORNE      CLEAR     73  39  29 CALM      30.00R
$$

NVZ002-CAZ072-073-010800-
NORTHERN AND CENTRAL SIERRA

CITY           SKY/WX    TMP DP  RH WIND       PRES   REMARKS
S. LAKE TAHOE  CLEAR     52  36  54 CALM      30.16S
TRUCKEE        CLEAR     50  34  53 CALM      30.16S
SQUAW VLY 8000 NOT AVBL
SUSANVILLE     CLEAR     63  34  34 SW5       30.06R
BLUE CANYON    CLEAR     67  33  28 NE3       30.11F
MAMMOTH LAKES  FAIR      57  28  33 N3        30.19S
BRIDGEPORT     FAIR      50  15  24 CALM      30.17R
$$

NVZ030-031-036-010800-
NORTHERN NEVADA

CITY           SKY/WX    TMP DP  RH WIND       PRES   REMARKS
ELKO           CLEAR     51  35  54 NE3       30.05R
WINNEMUCCA     CLEAR     53  30  41 E6        30.03R
WENDOVER       CLEAR     66  36  32 N6        30.00R
$$

NVZ035-037-010800-
CENTRAL NEVADA

CITY           SKY/WX    TMP DP  RH WIND       PRES   REMARKS
ELY            CLEAR     50  35  56 S10       30.12R
EUREKA           N/A     51  29  42 CALM      30.11R
$$

NVZ013-014-010800-
SOUTH CENTRAL NEVADA

CITY           SKY/WX    TMP DP  RH WIND       PRES   REMARKS
TONOPAH        CLEAR     65  25  22 NW10      30.05R
$$

NVZ017-020-022-010800-
SOUTHERN NEVADA

CITY           SKY/WX    TMP DP  RH WIND       PRES   REMARKS
LAS VEGAS      CLEAR     89  29  11 S10       29.73R
N. LAS VEGAS   CLEAR     88  33  14 CALM      29.76R
NELLIS AFB     CLEAR     89  33  13 W3        29.74R
HENDERSON      CLEAR     87  29  12 S12       29.80S
MERCURY        CLEAR     77  30  17 NE6       29.85S
$$



USA.gov is the U.S. government's official web portal to all federal, state and local government web resources and services.